Fort Rucker / Ozark, AL

4:50 AM CDT on June 29, 2017 (GMT -0500)
Fort Rucker / Ozark

Weather History for KLOR - August, 2013

Change the Weather History Date:

Saturday, August 24, 2013

  Actual Average (KOZR) Record (KOZR)
Temperature  
Mean Temperature 78 °F -  
Max Temperature 88 °F 87 °F 99 °F (2014)
Min Temperature 69 °F 67 °F 62 °F (2001)
Cooling Degree Days 14    
Growing Degree Days 28 (Base 50)    
Moisture  
Dew Point 72 °F    
Average Humidity 87    
Maximum Humidity 100    
Minimum Humidity 57    
Precipitation  
Precipitation 0.11 in - - ()
Sea Level Pressure  
Sea Level Pressure 30.09 in    
Wind  
Wind Speed 2 mph (East)    
Max Wind Speed 10 mph    
Max Gust Speed 18 mph    
Visibility 7 miles    
Events Fog , Rain , Thunderstorm    
Averages and records for this station are not official NWS values.
T = Trace of Precipitation, MM = Missing Value Source: NWS Daily Summary

Daily Weather History Graph

Daily Weather History Graph

Search for Another Location

Airport or City:

Trip Planner

Search our weather history database for the weather conditions in past years. The results will help you decide how hot, cold, wet, or windy it might be!

Date:

Astronomy

Aug. 24, 2013 Rise Set
Actual Time 6:14 AM CDT 7:15 PM CDT
Civil Twilight 5:49 AM CDT 7:40 PM CDT
Nautical Twilight 5:19 AM CDT 8:10 PM CDT
Astronomical Twilight 4:48 AM CDT 8:40 PM CDT
Moon 9:30 PM CDT (8/24) 9:54 AM CDT (8/24)
Length of Visible Light 13h 51m
Length of Day
13h 01m
Waning Gibbous, 84% of the Moon is Illuminated
Aug 24
Waning Gibbous
Aug 28
Last Quarter
Sep 5
New
Sep 12
First Quarter
Sep 19
Full

Hourly Weather History & Observations

Time (CDT) Temp. Heat Index Dew Point Humidity Pressure Visibility Wind Dir Wind Speed Gust Speed Precip Events Conditions
12:53 AM 71.1 °F - 70.0 °F 96% 30.03 in 10.0 mi South 4.6 mph - N/A   Clear
1:53 AM 71.1 °F - 70.0 °F 96% 30.01 in 10.0 mi SSW 3.5 mph - N/A   Clear
2:10 AM 71.6 °F - 69.8 °F 94% 30.02 in 10.0 mi Calm Calm - N/A   Partly Cloudy
2:25 AM 71.6 °F - 69.8 °F 94% 30.03 in 10.0 mi Calm Calm - N/A   Mostly Cloudy
2:53 AM 71.1 °F - 70.0 °F 96% 30.02 in 10.0 mi Calm Calm - N/A   Overcast
3:35 AM 69.8 °F - 69.8 °F 100% 30.03 in 1.8 mi Calm Calm - N/A   Overcast
3:53 AM 70.0 °F - 70.0 °F 100% 30.04 in 0.8 mi NE 4.6 mph - N/A   Mist
4:53 AM 71.1 °F - 70.0 °F 96% 30.04 in 0.2 mi Calm Calm - N/A Fog Fog
5:53 AM 71.1 °F - 70.0 °F 96% 30.05 in 0.2 mi Calm Calm - N/A Fog Fog
6:20 AM 69.8 °F - 69.8 °F 100% 30.08 in 1.8 mi Calm Calm - N/A   Mostly Cloudy
6:26 AM 69.8 °F - 69.8 °F 100% 30.08 in 3.0 mi Calm Calm - N/A   Scattered Clouds
6:31 AM 69.8 °F - 69.8 °F 100% 30.08 in 1.8 mi Calm Calm - N/A   Scattered Clouds
6:42 AM 69.8 °F - 69.8 °F 100% 30.09 in 3.0 mi Calm Calm - N/A   Partly Cloudy
6:53 AM 70.0 °F - 70.0 °F 100% 30.08 in 8.0 mi Calm Calm - N/A   Scattered Clouds
7:00 AM 69.8 °F - 69.8 °F 100% 30.09 in 3.0 mi Calm Calm - N/A   Mostly Cloudy
7:03 AM 71.6 °F - 69.8 °F 94% 30.09 in 1.8 mi Calm Calm - N/A   Mostly Cloudy
7:12 AM 71.6 °F - 69.8 °F 94% 30.10 in 0.2 mi Calm Calm - N/A Fog Fog
7:35 AM 71.6 °F - 71.6 °F 100% 30.11 in 1.8 mi Calm Calm - N/A   Overcast
7:43 AM 71.6 °F - 71.6 °F 100% 30.11 in 2.5 mi Calm Calm - N/A   Overcast
7:53 AM 72.0 °F - 71.1 °F 97% 30.10 in 3.0 mi Calm Calm - N/A   Overcast
8:53 AM 77.0 °F - 73.0 °F 88% 30.11 in 10.0 mi Calm Calm - N/A   Mostly Cloudy
9:00 AM 78.8 °F - 73.4 °F 83% 30.11 in 10.0 mi Calm Calm - N/A   Scattered Clouds
9:53 AM 82.9 °F 88.0 °F 72.0 °F 69% 30.12 in 10.0 mi Calm Calm - N/A   Clear
10:53 AM 84.0 °F 89.0 °F 71.1 °F 65% 30.12 in 10.0 mi Variable 3.5 mph - N/A   Clear
11:53 AM 84.9 °F 90.7 °F 72.0 °F 65% 30.11 in 10.0 mi Calm Calm - N/A   Scattered Clouds
12:53 PM 86.0 °F 92.2 °F 72.0 °F 63% 30.11 in 10.0 mi Calm Calm - N/A   Partly Cloudy
1:53 PM 88.0 °F 93.8 °F 71.1 °F 57% 30.10 in 10.0 mi ENE 4.6 mph - N/A   Partly Cloudy
2:53 PM 87.1 °F 92.8 °F 71.1 °F 59% 30.07 in 10.0 mi SSE 3.5 mph - N/A   Partly Cloudy
3:53 PM 88.0 °F 94.7 °F 72.0 °F 59% 30.06 in 10.0 mi Calm Calm - N/A   Scattered Clouds
4:53 PM 87.1 °F 95.4 °F 73.9 °F 65% 30.06 in 10.0 mi ENE 4.6 mph - N/A   Scattered Clouds
5:44 PM 82.4 °F 89.5 °F 75.2 °F 79% 30.07 in 10.0 mi NNE 4.6 mph - N/A Thunderstorm Thunderstorm
5:53 PM 82.9 °F 90.2 °F 75.0 °F 77% 30.06 in 10.0 mi Calm Calm - N/A Thunderstorm Thunderstorm
6:00 PM 82.4 °F 89.5 °F 75.2 °F 79% 30.07 in 10.0 mi Calm Calm - N/A   Clear
6:37 PM 82.4 °F 89.5 °F 75.2 °F 79% 30.07 in 10.0 mi NNE 3.5 mph - N/A Thunderstorm Thunderstorm
6:53 PM 82.0 °F 88.6 °F 75.0 °F 79% 30.07 in 10.0 mi Calm Calm - N/A Thunderstorm Thunderstorm
7:06 PM 80.6 °F 86.2 °F 75.2 °F 84% 30.08 in 10.0 mi Calm Calm - N/A   Clear
7:22 PM 78.8 °F - 75.2 °F 89% 30.08 in 10.0 mi Calm Calm - N/A Thunderstorm Thunderstorm
7:53 PM 79.0 °F - 75.9 °F 90% 30.10 in 10.0 mi Calm Calm - N/A   Clear
8:53 PM 78.1 °F - 73.0 °F 84% 30.10 in 10.0 mi Calm Calm - N/A   Partly Cloudy
9:53 PM 75.9 °F - 73.0 °F 91% 30.13 in 10.0 mi NE 3.5 mph - N/A   Clear
10:22 PM 77.0 °F - 73.4 °F 89% 30.15 in 7.0 mi East 10.4 mph 17.3 mph 0.00 in Rain Light Rain
10:36 PM 75.2 °F - 73.4 °F 94% 30.17 in 5.0 mi East 9.2 mph - 0.02 in Rain , Thunderstorm Light Thunderstorms and Rain
10:43 PM 75.2 °F - 73.4 °F 94% 30.18 in 8.0 mi ESE 9.2 mph 17.3 mph 0.02 in Rain , Thunderstorm Light Thunderstorms and Rain
10:53 PM 73.0 °F - 71.1 °F 93% 30.17 in 4.0 mi Variable 5.8 mph 18.4 mph 0.06 in Rain , Thunderstorm Thunderstorms and Rain
11:11 PM 71.6 °F - 69.8 °F 94% 30.19 in 9.0 mi Variable 4.6 mph - 0.02 in Rain , Thunderstorm Light Thunderstorms and Rain
11:20 PM 71.6 °F - 69.8 °F 94% 30.18 in 10.0 mi Calm Calm - 0.03 in Rain , Thunderstorm Light Thunderstorms and Rain
11:53 PM 71.1 °F - 69.1 °F 93% 30.16 in 10.0 mi Calm Calm - 0.05 in Rain , Thunderstorm Light Thunderstorms and Rain